Hourly Data Report for October 30, 2016

All times are specified in Local Standard Time (LST). Add 1 hour to adjust for Daylight Saving Time where and when it is observed.

RANKIN INLET A
NUNAVUT

62°48'38.000" N
92°06'53.000" W
32.30 m
2303405
71083
YRT

Download Data

Hourly Data (October 2016)
Hourly Data Report for October 30, 2016
Temp Definition
°C
Dew Point Temp Definition
°C
Rel Hum Definition
%
Wind Dir Definition
10's deg

Wind Spd Definition
km/h
Visibility Definition
km
Stn Press Definition
kPa
Hmdx Definition


Wind Chill Definition


Weather Definition


TIME
00:00 Legend Double Dagger -12.3 -14.5 84 24 27 4.8 99.72   -22 Snow,Blowing Snow
01:00 Legend Double Dagger -11.2 -13.0 87 16 13 8.1 99.61   -18 Snow,Blowing Snow
02:00 Legend Double Dagger -12.2 -14.2 85 3 41 6.4 99.80   -24 Snow,Blowing Snow
03:00 Legend Double Dagger -14.4 -16.4 85 1 40 8.1 100.08   -27 Snow,Blowing Snow
04:00 Legend Double Dagger -17.3 -19.4 84 34 35 4.8 100.28   -30 Snow,Blowing Snow
05:00 Legend Double Dagger -17.3 -19.4 84 35 39 6.4 100.38   -30 Snow,Blowing Snow
06:00 Legend Double Dagger -17.7 -19.9 83 34 40 9.7 100.52   -31 Snow,Blowing Snow
07:00 Legend Double Dagger -17.9 -20.1 83 33 38 12.9 100.59   -31 Blowing Snow
08:00 Legend Double Dagger -17.9 -20.1 83 33 30 9.7 100.64   -30 Blowing Snow
09:00 Legend Double Dagger -18.3 -20.7 82 30 22 9.7 100.65   -29 Blowing Snow
10:00 Legend Double Dagger -15.9 -18.2 83 29 26 16.1 100.65   -27 Blowing Snow
11:00 Legend Double Dagger -15.2 -17.5 83 29 33 16.1 100.61   -27 Blowing Snow
12:00 Legend Double Dagger -12.1 -13.8 87 29 37 9.7 100.54   -23 Blowing Snow
13:00 Legend Double Dagger -8.9 -10.3 90 30 43 2.4 100.49   -20 Snow,Blowing Snow
14:00 Legend Double Dagger -7.2 -8.3 92 29 46 2.4 100.44   -18 Snow,Blowing Snow
15:00 Legend Double Dagger -5.9 -7.1 91 30 50 8.1 100.46   -16 Blowing Snow
16:00 Legend Double Dagger -5.8 -7.0 91 32 50 2.4 100.49   -16 Blowing Snow
17:00 Legend Double Dagger -6.6 -8.0 90 32 48 6.4 100.51   -17 Blowing Snow
18:00 Legend Double Dagger -6.7 -7.9 91 32 43 4.8 100.52   -17 Blowing Snow
19:00 Legend Double Dagger -7.0 -8.4 90 32 51 4.8 100.53   -18 Blowing Snow
20:00 Legend Double Dagger -7.0 -8.4 90 32 44 4.8 100.51   -17 Blowing Snow
21:00 Legend Double Dagger -7.9 -9.3 90 32 41 6.4 100.50   -18 Blowing Snow
22:00 Legend Double Dagger -8.6 -10.2 88 32 37 12.9 100.49   -19 Blowing Snow
23:00 Legend Double Dagger -9.0 -10.6 88 31 33 12.9 100.55   -19 Blowing Snow

Notes on Data Quality.

Legend

  • E = Estimated
  • M = Missing
  • NA = Not Available
  • ‡ = Partner data that is not subject to review by the National Climate Archives
Date modified: